BEIDOU-2 IGSO-6

Last updated on Wed Jul 09 2025 00:02:45 GMT+0000 (Coordinated Universal Time)

1 41434U 16021A 25189.56866382 -.00000141 00000+0 00000+0 0 9990 2 41434 59.7403 41.4651 0054194 228.0809 317.3458 1.00283921 34036
UTC large
Height (km)
Speed (km/s)
/
Latitude / Longitude
Inclination (degrees)
Orbital Period (minutes)
Azimuth
Elevation
Range (km)
Doppler Factor

Next 0 passes for location: London (51.5072 / 0.1276)

Sorry there are no passes over London.